This is the latest recevied weather packets stored in our database for station/object KM4KMO-14. If no packets are shown the sender has not sent any weather packets the latest 10 day(s).
| Time | Temp. | Humidity | Pressure | Rain* | Wind** | Luminosity | Snow |
|---|---|---|---|---|---|---|---|
| 1777678049 | 18.33° C | 58% | 1009.7 hPa | 0 mm | - | - | - |
| 1777677149 | 18.89° C | 61% | 1009.6 hPa | 0 mm | - | - | - |
| 1777676249 | 19.44° C | 60% | 1009.2 hPa | 0 mm | - | - | - |
| 1777675349 | 20.56° C | 58% | 1009 hPa | 0 mm | - | - | - |
| 1777674450 | 21.67° C | 56% | 1009 hPa | 0 mm | - | - | - |
| 1777673549 | 21.67° C | 52% | 1008.8 hPa | 0 mm | - | - | - |
| 1777672649 | 21.67° C | 49% | 1008.9 hPa | 0 mm | - | - | - |
| 1777671749 | 21.67° C | 51% | 1009.4 hPa | 0 mm | - | - | - |
| 1777670849 | 22.22° C | 51% | 1009.5 hPa | 0 mm | - | - | - |
| 1777669949 | 22.22° C | 51% | 1009.8 hPa | 0 mm | - | - | - |
| 1777669049 | 21.67° C | 53% | 1010 hPa | 0 mm | - | - | - |
| 1777668149 | 21.11° C | 50% | 1010.1 hPa | 0 mm | - | - | - |
| 1777667249 | 21.67° C | 56% | 1010.2 hPa | 0 mm | - | - | - |
| 1777666350 | 21.11° C | 51% | 1010.3 hPa | 0 mm | - | - | - |
| 1777665449 | 21.11° C | 54% | 1010.7 hPa | 0 mm | - | - | - |
| 1777664550 | 20.56° C | 54% | 1010.9 hPa | 0 mm | - | - | - |
| 1777663650 | 20.56° C | 52% | 1011 hPa | 0 mm | - | - | - |
| 1777662750 | 20° C | 52% | 1011.2 hPa | 0 mm | - | - | - |
| 1777661850 | 20° C | 54% | 1011.2 hPa | 0 mm | - | - | - |
| 1777660950 | 20° C | 54% | 1011.1 hPa | 0 mm | - | - | - |
| 1777660050 | 20° C | 55% | 1011.1 hPa | 0 mm | - | - | - |
| 1777659150 | 20° C | 54% | 1011.3 hPa | 0 mm | - | - | - |
| 1777658250 | 20° C | 54% | 1011.5 hPa | 0 mm | - | - | - |
| 1777657350 | 20° C | 53% | 1011.4 hPa | 0 mm | - | - | - |
| 1777656450 | 20° C | 52% | 1011.5 hPa | 0 mm | - | - | - |
* Rain latest hour (hover to see other rain measurements)
** Current wind speed in m/s (hover to see current wind gust speed)